Weather History for Fort Polk, LA

Change the Weather History Date:

Saturday, July 20, 2013

  Actual Average (KPOE) Record (KPOE)
Temperature  
Mean Temperature 78 °F -  
Max Temperature 89 °F 90 °F 100 °F (2000)
Min Temperature 66 °F 71 °F 66 °F (2004)
Cooling Degree Days 12    
Growing Degree Days 28 (Base 50)    
Moisture  
Dew Point 68 °F    
Average Humidity 79    
Maximum Humidity 100    
Minimum Humidity 48    
Precipitation  
Precipitation 0.01 in - - ()
Sea Level Pressure  
Sea Level Pressure 29.96 in    
Wind  
Wind Speed 1 mph (NNE)    
Max Wind Speed 9 mph    
Max Gust Speed -    
Visibility 7 miles    
Events      
Averages and records for this station are not official NWS values.
T = Trace of Precipitation, MM = Missing Value Source: NWS Daily Summary

Daily Weather History Graph

Daily Weather History Graph

Search for Another Location

Airport:

Trip Planner

Search our weather history database for the weather conditions in past years. The results will help you decide how hot, cold, wet, or windy it might be!

Date:

Astronomy

Jul. 20, 2013 Rise Set
Actual Time 6:22 AM CDT 8:16 PM CDT
Civil Twilight 5:55 AM CDT 8:43 PM CDT
Nautical Twilight 5:22 AM CDT 9:16 PM CDT
Astronomical Twilight 4:47 AM CDT 9:51 PM CDT
Moon 6:21 PM CDT (7/20) 4:02 AM CDT (7/20)
Length of Visible Light 14h 48m
Length of Day
13h 54m
Waxing Gibbous, 94% of the Moon is Illuminated
Jul 20
Waxing Gibbous
Jul 22
Full
Jul 29
Last Quarter
Aug 6
New
Aug 14
First Quarter

Hourly Weather History & Observations

Time (CDT) Temp. Heat Index Dew Point Humidity Pressure Visibility Wind Dir Wind Speed Gust Speed Precip Events Conditions
12:56 AM 69.1 °F - 66.9 °F 93% 29.97 in 10.0 mi Calm Calm - N/A   Clear
1:56 AM 69.1 °F - 66.9 °F 93% 29.97 in 10.0 mi Calm Calm - N/A   Clear
2:56 AM 68.0 °F - 66.9 °F 96% 29.97 in 10.0 mi Calm Calm - N/A   Clear
3:56 AM 68.0 °F - 66.0 °F 93% 29.97 in 10.0 mi Calm Calm - N/A   Clear
4:56 AM 66.9 °F - 66.0 °F 97% 29.98 in 10.0 mi Calm Calm - N/A   Clear
5:56 AM 66.9 °F - 66.0 °F 97% 29.99 in 3.0 mi Calm Calm - N/A   Clear
6:00 AM 66.2 °F - 66.2 °F 100% 30.00 in 1.8 mi Calm Calm - N/A   Clear
6:14 AM 66.2 °F - 64.4 °F 94% 30.00 in 3.0 mi Calm Calm - N/A   Clear
6:18 AM 66.2 °F - 64.4 °F 94% 30.00 in 1.8 mi Calm Calm - N/A   Clear
6:44 AM 66.2 °F - 66.2 °F 100% 29.99 in 3.0 mi Calm Calm - N/A   Clear
6:56 AM 68.0 °F - 66.0 °F 93% 29.99 in 9.0 mi Calm Calm - N/A   Clear
7:40 AM 75.2 °F - 69.8 °F 83% 29.99 in 1.8 mi Calm Calm - N/A   Haze
7:56 AM 75.9 °F - 69.1 °F 79% 29.98 in 1.5 mi Calm Calm - N/A   Haze
8:56 AM 79.0 °F - 69.1 °F 72% 29.97 in 1.5 mi Calm Calm - N/A   Haze
9:11 AM 80.6 °F 83.2 °F 68.0 °F 65% 29.98 in 2.5 mi Calm Calm - N/A   Haze
9:56 AM 82.0 °F 84.5 °F 66.9 °F 60% 29.97 in 10.0 mi Calm Calm - N/A   Clear
10:56 AM 84.9 °F 87.6 °F 66.9 °F 55% 29.97 in 10.0 mi Calm Calm - N/A   Clear
11:56 AM 88.0 °F 90.7 °F 66.9 °F 49% 29.97 in 10.0 mi NNE 4.6 mph - N/A   Clear
12:56 PM 88.0 °F 91.4 °F 68.0 °F 51% 29.96 in 10.0 mi West 3.5 mph - N/A   Mostly Cloudy
1:56 PM 89.1 °F 92.1 °F 66.9 °F 48% 29.94 in 10.0 mi Calm Calm - N/A   Mostly Cloudy
2:56 PM 86.0 °F 89.4 °F 68.0 °F 55% 29.93 in 10.0 mi ENE 9.2 mph - N/A   Overcast
3:56 PM 87.1 °F 92.8 °F 71.1 °F 59% 29.92 in 10.0 mi Calm Calm - 0.00 in   Mostly Cloudy
4:56 PM 82.0 °F 85.5 °F 69.1 °F 65% 29.92 in 10.0 mi Variable 3.5 mph - 0.01 in   Mostly Cloudy
5:56 PM 84.0 °F 88.4 °F 70.0 °F 63% 29.90 in 10.0 mi Variable 3.5 mph - N/A   Partly Cloudy
6:56 PM 80.1 °F 83.2 °F 70.0 °F 71% 29.90 in 10.0 mi Variable 3.5 mph - N/A   Clear
7:56 PM 79.0 °F - 70.0 °F 74% 29.90 in 10.0 mi Calm Calm - N/A   Clear
8:56 PM 75.9 °F - 72.0 °F 87% 29.92 in 10.0 mi Calm Calm - N/A   Clear
9:56 PM 73.9 °F - 72.0 °F 93% 29.93 in 10.0 mi Calm Calm - N/A   Clear
10:56 PM 73.0 °F - 71.1 °F 93% 29.94 in 6.0 mi Calm Calm - N/A   Clear
11:56 PM 71.1 °F - 70.0 °F 96% 29.95 in 5.0 mi Calm Calm - N/A   Clear